Weather History for KMSY - November, 2012

Change the Weather History Date:

Saturday, November 24, 2012

  Actual Average Record
Temperature  
Mean Temperature 52 °F -  
Max Temperature 61 °F 68 °F 83 °F (1973)
Min Temperature 44 °F 48 °F 25 °F (1970)
Degree Days  
Heating Degree Days 12    
Growing Degree Days 2 (Base 50)    
Moisture  
Dew Point 37 °F    
Average Humidity 54    
Maximum Humidity 73    
Minimum Humidity 39    
Precipitation  
Precipitation 0.00 in - - ()
Sea Level Pressure  
Sea Level Pressure 30.25 in    
Wind  
Wind Speed 11 mph (North)    
Max Wind Speed 18 mph    
Max Gust Speed 23 mph    
Visibility 10 miles    
Events      
Averages and records for this station are not official NWS values.
T = Trace of Precipitation, MM = Missing Value Source: NWS Daily Summary

Daily Weather History Graph

Daily Weather History Graph

Search for Another Location

Airport or City:

Trip Planner

Search our weather history database for the weather conditions in past years. The results will help you decide how hot, cold, wet, or windy it might be!

Date:

Astronomy

Nov. 24, 2012 Rise Set
Actual Time 6:33 AM CST 5:01 PM CST
Civil Twilight 6:08 AM CST 5:27 PM CST
Nautical Twilight 5:38 AM CST 5:56 PM CST
Astronomical Twilight 5:10 AM CST 6:25 PM CST
Moon 2:35 PM CST (11/24) 3:03 AM CST (11/24)
Length of Visible Light 11h 19m
Length of Day
10h 27m
Waxing Gibbous, 87% of the Moon is Illuminated
Nov 24
Waxing Gibbous
Nov 28
Full
Dec 6
Last Quarter
Dec 13
New
Dec 19
First Quarter

Hourly Weather History & Observations

Time (CST) Temp. Dew Point Humidity Pressure Visibility Wind Dir Wind Speed Gust Speed Precip Events Conditions
12:53 AM 61.0 °F 41.0 °F 48% 30.25 in 10.0 mi North 12.7 mph - N/A   Mostly Cloudy
1:53 AM 60.1 °F 39.0 °F 46% 30.25 in 10.0 mi North 11.5 mph - N/A   Mostly Cloudy
2:53 AM 57.0 °F 39.9 °F 53% 30.25 in 10.0 mi North 9.2 mph - N/A   Mostly Cloudy
3:53 AM 57.0 °F 39.0 °F 51% 30.25 in 10.0 mi North 11.5 mph - N/A   Mostly Cloudy
4:53 AM 55.0 °F 39.0 °F 55% 30.27 in 10.0 mi NNE 12.7 mph - N/A   Mostly Cloudy
5:53 AM 52.0 °F 39.0 °F 61% 30.28 in 10.0 mi NNE 18.4 mph - N/A   Scattered Clouds
6:53 AM 50.0 °F 37.9 °F 63% 30.30 in 10.0 mi NNE 18.4 mph - N/A   Mostly Cloudy
7:53 AM 51.1 °F 37.9 °F 61% 30.32 in 10.0 mi NE 17.3 mph 23.0 mph N/A   Scattered Clouds
8:53 AM 52.0 °F 37.9 °F 59% 30.33 in 10.0 mi NE 16.1 mph - N/A   Partly Cloudy
9:53 AM 53.1 °F 37.9 °F 57% 30.33 in 10.0 mi NE 11.5 mph - N/A   Partly Cloudy
10:53 AM 55.0 °F 39.0 °F 55% 30.32 in 10.0 mi North 9.2 mph - N/A   Partly Cloudy
11:53 AM 55.9 °F 37.9 °F 51% 30.29 in 10.0 mi NNE 12.7 mph 17.3 mph N/A   Partly Cloudy
12:53 PM 57.0 °F 37.9 °F 49% 30.26 in 10.0 mi NNW 8.1 mph - N/A   Partly Cloudy
1:53 PM 57.9 °F 37.9 °F 47% 30.23 in 10.0 mi NNW 8.1 mph - N/A   Partly Cloudy
2:53 PM 59.0 °F 35.6 °F 42% 30.22 in 10.0 mi NNW 8.1 mph - N/A   Partly Cloudy
3:53 PM 57.2 °F 35.6 °F 44% 30.21 in 10.0 mi North 5.8 mph - N/A   Partly Cloudy
4:53 PM 53.6 °F 37.4 °F 54% 30.21 in 10.0 mi North 3.5 mph - N/A   Partly Cloudy
5:53 PM 51.8 °F 35.6 °F 54% 30.21 in 10.0 mi North 5.8 mph - N/A   Partly Cloudy
6:53 PM 51.1 °F 36.0 °F 56% 30.22 in 10.0 mi North 6.9 mph - N/A   Clear
7:53 PM 50.0 °F 35.1 °F 57% 30.23 in 10.0 mi North 5.8 mph - N/A   Clear
8:53 PM 51.1 °F 33.1 °F 50% 30.23 in 10.0 mi North 4.6 mph - N/A   Clear
9:53 PM 48.9 °F 34.0 °F 56% 30.22 in 10.0 mi Calm Calm - N/A   Clear
10:53 PM 46.0 °F 35.1 °F 66% 30.22 in 10.0 mi Calm Calm - N/A   Clear
11:53 PM 44.1 °F 36.0 °F 73% 30.19 in 10.0 mi Calm Calm - N/A   Clear